This demonstration page uses our WeatherBlox Daily Observations layout. Learn more.

Left ArrowRight Arrow

36.19886, -115.1175

Hourly Observations for August 8, 2021

Temp ( °F °C ) Dew Point ( °F °C ) Humidity (%) Winds ( mph kmh ) Pressure ( in mb ) Visibility ( mi km ) Precip ( " mm )
12:53 am 00:53 Clear with Smoke 86 30 26 -3.3 11 11 NNW 5 7 29.76 1008 10 16 0.00 0.00
1:53 am 01:53 Clear with Smoke 84 28.9 32 0 15 15 NW 6 9 29.77 1008 10 16 0.00 0.00
2:53 am 02:53 Clear with Smoke 83 28.3 34 1.1 17 17 WNW 7 11 29.77 1008 10 16 0.00 0.00
3:53 am 03:53 Clear with Smoke 79 26.1 34 1.1 20 20 NW 6 9 29.77 1008 10 16 0.00 0.00
4:53 am 04:53 Clear with Smoke 79 26.1 34 1.1 20 20 W 6 9 29.78 1009 10 16 0.00 0.00
5:53 am 05:53 Clear with Smoke 78 25.6 36 2.2 22 22 WNW 6 9 29.80 1009 10 16 0.00 0.00
6:53 am 06:53 Sunny with Smoke 78 25.6 37 2.8 23 23 WNW 5 7 29.81 1010 10 16 0.00 0.00
7:53 am 07:53 Sunny with Smoke 84 28.9 31 -0.6 15 15 Calm 29.83 1010 10 16 0.00 0.00
8:53 am 08:53 Sunny with Smoke 89 31.7 30 -1.1 12 12 Calm 29.83 1010 10 16 0.00 0.00
9:53 am 09:53 Sunny with Smoke 93 33.9 30 -1.1 10 10 ESE 7 11 29.82 1010 10 16 0.00 0.00
10:53 am 10:53 Sunny with Smoke 100 37.8 30 -1.1 8 8 SE 12 19 29.81 1010 10 16 0.00 0.00
11:53 am 11:53 Sunny with Smoke 104 40 20 -6.7 5 5 S 17 28 29.79 1009 10 16 0.00 0.00
12:53 pm 12:53 Sunny with Smoke 106 41.1 18 -7.8 4 4 WSW 14 22 29.79 1009 10 16 0.00 0.00
1:53 pm 13:53 Sunny with Smoke 106 41.1 21 -6.1 5 5 SSW 9 15 29.77 1008 10 16 0.00 0.00
2:53 pm 14:53 Sunny with Smoke 106 41.1 15 -9.4 4 4 SSW 14 22 29.75 1007 10 16 0.00 0.00
3:53 pm 15:53 Sunny with Smoke 107 41.7 20 -6.7 4 4 SSW 22 35 29.73 1007 10 16 0.00 0.00
4:53 pm 16:53 Sunny with Smoke 106 41.1 20 -6.7 5 5 WSW 18 30 29.72 1006 10 16 0.00 0.00
5:53 pm 17:53 Sunny with Smoke 106 41.1 21 -6.1 5 5 SW 17 28 29.70 1006 10 16 0.00 0.00
6:53 pm 18:53 Sunny with Smoke 104 40 26 -3.3 6 6 SSW 18 30 29.70 1006 10 16 0.00 0.00
7:53 pm 19:53 Clear with Smoke 102 38.9 28 -2.2 7 7 SSW 12 19 29.70 1006 10 16 0.00 0.00
8:53 pm 20:53 Clear with Smoke 100 37.8 31 -0.6 9 9 SW 9 15 29.72 1006 10 16 0.00 0.00
9:53 pm 21:53 Clear with Smoke 98 36.7 32 0 10 10 SSW 10 17 29.74 1007 10 16 0.00 0.00
10:53 pm 22:53 Clear with Smoke 97 36.1 33 0.6 10 10 SSW 9 15 29.73 1007 10 16 0.00 0.00
11:53 pm 23:53 Clear with Smoke 95 35 33 0.6 11 11 SSW 10 17 29.74 1007 10 16 0.00 0.00

Powered by AerisWeather